Simultaneous Nadir Overpasses (SNOs) Predictions

Prediction of SNOs between LANDSAT-8 and NOAA-19 Satellite Orbit:

Table of predicted SNOs for the next 14.0 days since TLE Epoch: 6/22/2024
Index Date (LANDSAT-8) Time (LANDSAT-8) Lat,Lon (LANDSAT-8) SZA (LANDSAT-8 ) Date (NOAA-19) Time (NOAA-19) Lat,Lon (NOAA-19) SZA (NOAA-19 ) Distance(km) Time Diff (sec)
1 06/23/2024 04:44:05 80.65, 142.77 58.83 06/23/2024 04:42:52 80.66, 142.75 58.81 0.42 73
2 06/23/2024 05:33:31 -80.68, -49.29 121.12 06/23/2024 05:33:49 -80.69, -49.14 121.09 2.95 18
3 06/25/2024 11:56:43 -80.68,-145.10 121.08 06/25/2024 11:56:42 -80.69,-144.96 121.06 2.69 1
4 06/27/2024 18:19:55 -80.67, 118.97 121.02 06/27/2024 18:19:36 -80.66, 118.82 121.05 2.93 19
5 06/27/2024 19:09:20 80.70, -73.02 59.04 06/27/2024 19:10:33 80.70, -73.00 59.08 0.57 73
6 06/30/2024 00:43:06 -80.67, 23.26 120.90 06/30/2024 00:42:28 -80.66, 23.23 120.92 1.03 38
7 06/30/2024 01:32:31 80.70,-168.75 59.17 06/30/2024 01:33:26 80.70,-168.75 59.19 0.56 55
8 07/02/2024 07:06:18 -80.64, -72.90 120.81 07/02/2024 07:05:21 -80.65, -72.77 120.81 2.69 57
9 07/02/2024 07:55:42 80.67, 95.06 59.25 07/02/2024 07:56:19 80.68, 95.07 59.27 0.83 37
10 07/04/2024 13:29:47 -80.02,-174.71 121.69 07/04/2024 13:28:33 -80.24,-175.56 121.58 29.63 74



Historial Predications of SNOs between LANDSAT-8 and NOAA-19
